This is the latest recevied weather packets stored in our database for station/object IT9DBI-3. If no packets are shown the sender has not sent any weather packets the latest 10 day(s).
| Time | Temp. | Humidity | Pressure | Rain* | Wind** | Luminosity | Snow |
|---|---|---|---|---|---|---|---|
| 1777435581 | 12.22° C | 75% | 1014.5 hPa | - | - | - | - |
| 1777434380 | 12.78° C | 73% | 1014.3 hPa | - | - | - | - |
| 1777433179 | 12.78° C | 74% | 1014.3 hPa | - | - | - | - |
| 1777431977 | 12.22° C | 78% | 1014.5 hPa | - | - | - | - |
| 1777430776 | 12.78° C | 73% | 1014.5 hPa | - | - | - | - |
| 1777429575 | 13.33° C | 68% | 1014.6 hPa | - | - | - | - |
| 1777428374 | 12.78° C | 72% | 1014.5 hPa | - | - | - | - |
| 1777427172 | 12.78° C | 73% | 1014.6 hPa | - | - | - | - |
| 1777425971 | 12.78° C | 75% | 1014.5 hPa | - | - | - | - |
| 1777424765 | 12.78° C | 81% | 1014.6 hPa | - | - | - | - |
| 1777423563 | 13.33° C | 86% | 1014.8 hPa | - | - | - | - |
| 1777422360 | 13.33° C | 85% | 1015 hPa | - | - | - | - |
| 1777421158 | 13.33° C | 93% | 1015 hPa | - | - | - | - |
| 1777419957 | 13.33° C | 96% | 1015.2 hPa | - | - | - | - |
| 1777418755 | 13.89° C | 94% | 1015.3 hPa | - | - | - | - |
| 1777417554 | 13.89° C | 100% | 1015.5 hPa | - | - | - | - |
| 1777416353 | 15° C | 100% | 1015.6 hPa | - | - | - | - |
| 1777415152 | 15° C | 100% | 1015.5 hPa | - | - | - | - |
| 1777413950 | 15° C | 100% | 1015.5 hPa | - | - | - | - |
| 1777412749 | 15.56° C | 100% | 1015.5 hPa | - | - | - | - |
| 1777411548 | 16.11° C | 100% | 1015.7 hPa | - | - | - | - |
| 1777410346 | 15.56° C | 100% | 1015.8 hPa | - | - | - | - |
| 1777409140 | 15.56° C | 100% | 1015.5 hPa | - | - | - | - |
| 1777407938 | 15.56° C | 100% | 1015.5 hPa | - | - | - | - |
| 1777406736 | 15.56° C | 100% | 1015.3 hPa | - | - | - | - |
* Rain since midnight (hover to see other rain measurements)
** Current wind speed in m/s (hover to see current wind gust speed)